Date,TemperatureHighF,TemperatureAvgF,TemperatureLowF,DewpointHighF,DewpointAvgF,DewpointLowF,HumidityHigh,HumidityAvg,HumidityLow,PressureMaxIn,PressureMinIn,WindSpeedMaxMPH,WindSpeedAvgMPH,GustSpeedMaxMPH,PrecipitationSumIn
2013-3-1,52.4,48.5,44.8,50.6,47.4,44.0,98,96,92,30.22,30.16,11,2,11,0.49
2013-3-2,47.4,44.4,39.8,46.6,42.8,35.5,98,94,83,30.21,30.04,25,4,25,0.12
2013-3-3,45.8,41.8,38.3,39.4,35.6,32.3,87,79,67,30.32,30.17,27,9,27,0.00
2013-3-4,44.3,40.4,36.2,39.5,35.7,32.1,90,83,72,30.33,30.00,9,2,10,0.00
2013-3-5,45.6,40.5,37.3,39.4,36.0,32.5,94,84,64,30.00,29.80,17,2,17,0.17
2013-3-6,48.0,42.7,38.5,41.6,38.1,35.0,95,84,66,29.85,29.66,19,4,19,0.02
2013-3-7,44.6,42.5,38.7,42.3,40.7,37.4,96,93,91,30.13,29.85,15,3,15,0.00
2013-3-8,50.6,42.6,37.5,43.9,39.2,34.5,98,88,74,30.25,30.11,6,1,7,0.00
2013-3-9,48.1,41.7,35.8,43.8,39.4,34.0,97,92,84,30.48,30.25,11,2,11,0.00
2013-3-10,47.4,43.7,39.0,43.7,41.0,37.2,95,90,81,30.48,30.40,13,1,13,0.01
2013-3-11,47.2,42.4,37.8,42.3,39.6,36.6,97,90,81,30.44,30.12,12,2,12,0.40
2013-3-12,53.6,47.0,41.1,48.3,44.7,39.8,97,92,78,30.12,29.92,19,5,19,0.22
2013-3-13,54.2,49.7,48.0,49.3,47.7,46.4,97,93,83,30.10,29.97,18,5,18,0.12
2013-3-14,51.1,48.6,46.9,48.5,47.0,45.3,97,94,86,30.08,29.97,17,4,18,0.06
2013-3-15,51.2,47.4,43.4,49.0,45.8,41.9,96,94,88,30.17,30.08,17,3,18,0.02
2013-3-16,49.7,43.7,37.2,43.6,38.7,31.5,95,84,52,30.09,29.81,33,4,33,0.03
2013-3-17,46.1,41.9,38.3,37.9,32.9,29.5,80,71,56,30.13,29.92,14,4,14,0.03
2013-3-18,47.9,42.2,37.8,37.6,34.9,31.7,87,76,60,30.23,30.01,19,4,19,0.02
2013-3-19,45.3,41.0,36.4,41.2,35.6,31.6,94,82,62,30.23,29.52,28,4,28,0.69
2013-3-20,54.6,44.7,35.3,47.8,40.8,32.9,97,87,55,29.92,29.23,38,7,40,0.83
2013-3-21,45.2,38.8,34.6,36.0,30.8,26.5,92,73,56,30.20,29.92,18,3,18,0.02
2013-3-22,43.7,39.1,34.9,34.9,31.6,28.7,82,74,64,30.37,30.20,20,6,21,0.00
2013-3-23,45.7,40.9,35.2,38.3,34.1,29.6,90,77,61,30.39,30.31,16,2,17,0.00
2013-3-24,47.1,42.5,38.3,37.7,35.2,32.7,83,76,61,30.31,30.16,10,2,10,0.00
2013-3-25,49.4,44.8,40.6,42.2,38.4,35.1,88,78,65,30.16,29.98,10,2,10,0.00
2013-3-26,52.8,47.1,42.7,45.6,40.7,35.3,84,79,57,30.04,29.99,5,1,5,0.00
2013-3-27,57.4,49.8,45.2,46.6,42.7,38.5,89,77,59,30.01,29.95,9,2,9,0.00
2013-3-28,54.2,49.4,45.7,48.4,45.6,43.2,93,87,76,30.14,30.01,6,1,6,0.00
2013-3-29,54.1,48.1,43.6,49.1,45.1,41.8,96,89,75,30.28,30.14,9,1,9,0.00
2013-3-30,57.6,50.5,44.2,47.5,44.1,39.9,93,79,53,30.31,30.12,15,4,16,0.00
2013-3-31,62.4,52.9,47.9,45.5,42.8,39.3,86,69,49,30.12,29.92,16,3,16,0.00